Flag for France Weather past 2 weeks in Perpignan, France

Now
73 °F

Passing clouds.


Feels Like: 77 °F
Forecast: 62 / 79 °F
Wind: 9 mph from Southeast

Location: Perpignan Airport

Current Time: May 29, 2015 at 4:52:57 PM

Latest Report: May 29, 2015 at 4:30 PM


Visibility: N/A

Pressure: 29.95 "Hg

Humidity: 44%

Dew point: 50 °F

Location of PerpignanLocation

Historic Weather in Perpignan — Graph

°F

Perpignan temperature yesterday

Maximum temperature yesterday: 81 °F (at 1:30 PM)
Minimum temperature yesterday: 55 °F (at 6:30 AM)
Average temperature yesterday: 71 °F

Past Weeks' High & Low Weather Summary

 TemperatureHumidityPressure
High81 °F (May 28, 1:30 PM)88% (May 19, 2:00 PM)30.27 "Hg (May 19, 2:00 PM)
Low54 °F (May 18, 6:00 AM)24% (May 27, 5:00 PM)29.83 "Hg (May 18, 6:00 PM)
Average65 °F50%30.06 "Hg
* Reported May 14 4:00 PM — May 29 4:00 PM, Perpignan, Weather by CustomWeather, © 2015

Note: Actual official high and low records may vary slightly from our data, if they occured in-between our weather recording intervals... More about our weather records

Advertising

Perpignan weather history for previous 24 hours

 ConditionsComfort  
Time TempWeatherWind HumidityBarometerVisibility
4:00 PM
Fri, May 29
77 °FSunny.10 mph39%29.95 "Hg10 mi
3:30 PM77 °FPassing clouds.10 mph42%29.95 "HgN/A
3:00 PM77 °FPassing clouds.12 mph42%29.95 "HgN/A
2:30 PM77 °FPassing clouds.12 mph44%29.95 "HgN/A
2:00 PM77 °FPassing clouds.12 mph47%29.95 "HgN/A
1:30 PM77 °FPassing clouds.12 mph47%29.95 "HgN/A
1:00 PM77 °FPassing clouds.10 mph44%29.95 "HgN/A
12:30 PM77 °FPassing clouds.10 mph44%29.98 "HgN/A
12:00 PM77 °FPassing clouds.9 mph44%29.98 "HgN/A
11:30 AM77 °FPassing clouds.8 mph44%29.98 "HgN/A
11:00 AM77 °FSunny.7 mph42%29.98 "Hg10 mi
10:30 AM77 °FSunny.2 mph36%29.98 "Hg10 mi
10:00 AM75 °FPassing clouds.3 mph41%29.98 "HgN/A
9:30 AM73 °FPassing clouds.6 mph44%29.98 "HgN/A
9:00 AM73 °FSunny.3 mph44%29.98 "Hg10 mi
8:30 AM72 °FSunny.3 mph44%29.98 "Hg10 mi
8:00 AM68 °FSunny.2 mph49%29.98 "Hg10 mi
7:30 AM64 °FSunny.2 mph60%29.98 "Hg10 mi
7:00 AM59 °FClear.2 mph68%29.95 "Hg10 mi
6:30 AM59 °FClear.5 mph68%29.95 "Hg10 mi
6:00 AM59 °FClear.5 mph68%29.95 "Hg10 mi
5:30 AM59 °FClear.1 mph68%29.95 "Hg10 mi
5:00 AM59 °FClear.2 mph68%29.95 "Hg10 mi
4:30 AM61 °FClear.2 mph63%29.95 "Hg10 mi
4:00 AM61 °FClear.3 mph63%29.98 "Hg10 mi
3:30 AM61 °FClear.5 mph63%29.98 "Hg10 mi
3:00 AM61 °FClear.6 mph63%29.98 "Hg10 mi
2:30 AM63 °FClear.7 mph59%29.98 "Hg10 mi
2:00 AM64 °FClear.8 mph56%30.01 "Hg10 mi
1:30 AM63 °FPassing clouds.7 mph59%30.01 "HgN/A
12:00 AM64 °FClear.5 mph64%30.01 "Hg10 mi
11:30 PM
Thu, May 28
68 °FClear.2 mph60%30.01 "Hg10 mi
11:00 PM70 °FClear.3 mph57%30.01 "Hg10 mi
10:30 PM72 °FClear.5 mph53%30.01 "Hg10 mi
10:00 PM73 °FPassing clouds.5 mph47%30.01 "HgN/A
9:30 PM73 °FSunny.3 mph44%30.01 "Hg10 mi
9:00 PM75 °FOvercast.3 mph39%29.98 "HgN/A
8:30 PM77 °FPartly sunny.3 mph42%30.01 "HgN/A
8:00 PM77 °FSunny.5 mph39%30.01 "Hg10 mi
7:30 PM77 °FPassing clouds.6 mph36%30.01 "HgN/A
7:00 PM79 °FPassing clouds.8 mph32%30.01 "HgN/A
6:30 PM79 °FPassing clouds.9 mph34%30.01 "HgN/A
6:00 PM79 °FSunny.12 mph32%30.01 "Hg10 mi
5:30 PM77 °FSunny.14 mph34%30.01 "Hg10 mi
5:00 PM79 °FSunny.14 mph32%30.04 "Hg10 mi
4:30 PM79 °FSunny.13 mph32%30.04 "Hg10 mi
4:00 PM79 °FPassing clouds.12 mph30%30.04 "HgN/A
Weather by CustomWeather, © 2015

See weather overviewHow to use our weather pages